Theta_e
316 308 311 310 300 298 295 297 299 300 303 308 311 313 313 316 312 305 330 337 337 340 347 349 349 351 351 350 349 349 348 347 346 345 345 344 343 342 342 341 340 340 338 339 337 337 335 335 335
309 311 311 304 295 291 292 298 298 300 307 315 313 314 314 313 325 326 331 337 338 343 347 348 345 349 350 350 349 349 348 346 346 345 345 344 343 341 340 341 341 339 337 340 335 336 336 335 333
307 310 305 298 292 290 292 298 298 304 309 308 315 318 317 317 325 328 332 338 341 343 346 347 344 348 350 350 349 348 348 348 346 346 345 344 342 341 340 342 343 341 336 336 334 338 337 334 335
308 306 300 295 292 295 296 299 302 302 304 307 314 312 321 324 328 331 336 340 341 342 345 343 345 348 348 349 349 348 348 348 347 345 344 342 342 341 340 340 341 340 337 334 334 335 337 339 335
303 298 292 290 291 296 298 300 302 302 303 304 309 309 316 320 328 334 337 340 339 340 344 344 344 346 347 347 348 347 347 346 346 345 343 341 340 340 338 337 337 336 336 335 335 336 337 339 335
298 295 287 285 287 294 297 299 301 302 302 304 306 311 315 314 328 331 338 338 340 340 342 343 337 340 343 345 346 346 346 345 345 345 343 342 341 340 339 337 335 334 334 334 334 335 337 339 337
296 291 287 287 289 293 296 300 300 300 301 302 309 308 311 311 325 331 336 338 339 340 341 342 343 341 335 339 340 341 342 342 343 342 342 340 340 340 340 339 338 335 334 334 335 337 337 339 338
295 292 290 289 289 291 297 298 300 301 301 303 309 303 305 311 316 329 333 335 337 338 339 340 342 342 342 343 333 335 337 338 338 338 336 334 334 334 335 334 336 337 337 337 337 337 336 338 336
301 292 288 291 291 293 296 295 298 297 299 300 304 306 310 310 324 326 327 330 333 335 337 338 340 340 342 342 337 331 331 333 333 333 330 330 337 336 334 330 331 335 336 336 336 336 336 333 333
297 290 290 294 293 293 295 294 295 295 295 296 298 300 306 306 318 323 324 326 328 330 333 337 338 339 341 341 341 339 339 338 338 337 336 337 336 337 333 328 326 330 330 332 334 335 333 329 332
295 291 292 293 294 294 294 293 294 293 293 296 296 298 303 304 306 321 323 325 328 330 333 335 336 336 337 339 339 339 339 338 337 336 336 335 335 334 334 335 333 331 325 330 329 329 329 331 331
290 294 294 296 295 294 293 293 292 293 296 296 296 297 300 302 303 312 319 323 324 325 327 328 328 327 325 326 322 323 320 319 316 315 319 330 331 331 332 332 331 331 332 330 330 328 328 327 329
291 291 292 293 292 292 292 291 292 291 294 295 294 295 295 300 301 303 311 315 318 319 315 313 312 316 313 311 308 307 305 305 305 306 307 308 312 319 324 326 327 326 328 329 330 329 328 326 326
291 291 290 290 290 290 290 289 289 291 292 292 292 293 293 294 300 302 302 305 309 311 305 301 302 304 305 304 303 302 303 303 303 304 304 305 307 308 310 315 318 320 323 326 326 326 326 326 327
290 287 287 287 288 287 287 287 286 290 291 290 290 290 291 292 294 297 301 301 301 304 299 299 299 299 300 300 301 301 302 301 301 302 303 304 305 305 306 307 309 311 314 316 319 322 323 323 323
286 285 283 286 287 287 287 286 289 288 289 289 290 290 290 291 293 293 297 297 296 297 297 298 299 298 298 299 299 299 300 301 301 302 303 303 304 305 305 306 306 308 309 312 314 315 315 316 317
283 281 281 284 286 285 285 285 288 288 288 289 289 289 289 290 291 292 293 294 294 295 296 296 298 298 298 298 298 298 299 299 299 299 300 300 301 302 301 302 303 304 305 306 308 311 313 314 315
282 281 281 282 284 284 283 284 288 288 288 288 288 288 287 288 290 292 292 292 293 294 295 296 296 295 295 295 295 296 297 297 297 297 298 299 300 301 300 300 301 301 302 302 303 304 307 309 311
284 282 282 283 284 283 282 283 286 287 287 287 286 285 286 288 289 290 290 291 292 293 294 293 293 292 293 294 295 295 295 295 296 297 298 299 299 299 299 299 299 300 299 299 300 301 302 303 309
282 281 280 282 284 283 281 282 286 286 286 285 285 285 285 287 286 287 289 291 293 293 291 291 292 292 293 293 293 294 294 294 295 296 298 299 298 298 298 297 297 298 297 298 298 299 299 301 305
280 280 281 282 282 282 280 281 284 286 286 285 285 286 286 285 286 287 289 289 290 290 290 291 292 292 292 293 293 294 294 295 295 296 296 296 297 297 297 296 296 296 297 296 297 298 297 296 299
280 282 282 281 279 275 280 276 282 284 284 284 284 284 285 286 287 288 288 288 289 288 290 292 292 292 292 294 294 294 293 292 293 294 294 294 295 295 295 295 295 295 295 295 296 297 297 297 294
281 282 281 281 275 272 275 274 280 282 282 283 283 284 285 286 287 287 288 288 288 289 290 290 291 293 294 294 294 293 292 292 293 293 292 293 293 294 294 294 294 293 293 294 294 294 294 295 294
283 282 281 279 275 269 273 276 279 279 282 283 284 284 285 286 287 288 288 288 288 289 289 290 291 293 293 293 292 292 291 291 291 291 291 291 291 292 293 293 293 293 292 292 293 293 293 293 294
281 279 269 269 267 272 275 272 279 283 282 283 283 284 285 286 286 287 287 288 289 289 289 290 292 292 292 292 292 291 291 291 290 290 290 289 290 290 291 292 291 291 291 292 292 292 292 292 292
279 279 274 268 270 272 274 272 280 282 282 283 284 284 285 285 286 287 287 288 289 289 289 291 292 291 291 291 291 291 291 291 291 290 290 289 289 290 291 291 291 290 291 291 291 291 292 292 293
279 276 281 272 262 269 274 277 282 282 281 282 283 284 284 285 286 286 287 288 288 288 288 291 292 291 291 291 291 290 290 290 290 290 290 289 290 290 291 291 290 291 291 291 291 291 291 292 292
280 282 277 276 268 266 271 272 279 279 280 282 283 285 285 285 286 287 287 287 287 287 289 292 291 291 290 290 290 290 290 291 290 290 289 289 290 290 290 291 290 290 290 291 291 291 292 292 292
279 278 279 281 280 273 270 276 281 280 281 282 284 286 286 286 286 287 287 286 286 286 288 289 289 289 289 289 289 289 290 290 290 289 289 289 289 289 290 290 290 290 290 291 291 291 291 291 291
281 281 283 279 278 276 276 276 283 282 282 284 285 286 287 287 286 286 286 285 285 285 286 286 287 287 288 288 288 289 289 289 289 289 289 290 289 290 290 290 289 289 290 290 290 290 291 290 290
Wind_Speed
6 4 1 5 4 4 3 4 1 2 1 1 2 4 4 2 3 3 4 8 8 16 13 14 13 14 13 13 12 11 10 10 10 10 9 9 8 7 5 5 4 4 3 3 4 8 7 6 5
4 2 4 3 5 2 4 3 4 3 1 5 3 2 2 2 1 2 6 6 10 15 12 12 12 12 14 13 12 11 10 9 9 9 8 7 6 4 2 4 4 3 3 8 2 2 7 8 4
2 3 4 5 3 4 4 4 3 1 3 1 3 1 3 2 1 4 2 9 12 12 12 11 12 12 12 14 13 11 10 9 9 8 7 6 5 2 1 5 4 5 2 5 4 9 6 7 5
2 4 5 4 4 5 5 3 3 2 1 0 2 1 1 2 4 4 7 12 13 12 11 11 11 13 11 13 12 11 11 10 9 8 5 3 3 4 2 5 4 3 2 3 4 5 2 7 6
4 3 4 2 4 5 4 4 3 4 2 2 2 2 2 1 2 5 10 11 13 11 10 11 10 11 11 10 10 8 8 7 7 6 5 3 3 3 2 3 5 4 3 3 4 5 5 5 7
4 3 4 3 5 4 5 3 3 2 2 2 1 4 2 2 3 4 7 10 10 12 10 10 8 7 9 10 9 8 8 8 8 6 5 5 4 4 3 2 1 1 1 3 4 5 6 8 9
6 4 3 3 3 4 4 4 3 4 2 3 3 3 2 1 3 5 6 7 8 8 9 9 8 8 7 8 8 8 7 6 7 7 6 5 5 5 4 3 3 3 3 4 4 4 6 9 9
5 4 3 4 3 3 1 2 1 3 4 2 1 3 3 1 5 6 6 6 7 7 8 9 9 8 7 8 10 10 10 9 9 7 7 6 5 5 5 5 5 5 4 4 5 5 6 5 4
3 4 2 4 6 2 2 0 0 3 2 1 3 2 0 3 6 6 6 4 5 5 7 7 8 8 9 9 8 9 10 9 8 7 6 4 3 4 5 5 5 6 7 7 7 6 7 6 5
4 3 7 2 4 1 2 1 2 1 2 3 2 3 1 4 4 7 7 8 7 7 7 7 9 9 8 6 7 7 4 3 3 3 3 3 4 3 4 4 6 6 6 8 8 8 7 6 4
3 5 3 1 2 2 1 2 2 1 4 7 5 2 2 4 5 7 6 6 8 6 5 6 6 1 3 2 3 2 1 2 3 4 3 2 2 2 2 3 2 2 4 3 4 4 3 6 5
2 4 3 2 1 0 2 2 4 7 8 4 4 2 2 6 8 8 7 7 7 6 6 4 3 2 4 4 4 4 4 3 3 4 5 3 2 2 2 2 2 3 2 5 5 4 5 5 6
3 2 2 2 4 4 2 6 6 8 11 7 6 5 6 6 6 3 4 4 6 6 6 5 4 4 4 6 4 5 4 4 4 4 5 4 3 3 3 3 3 5 5 5 6 6 6 5 6
1 3 5 4 1 3 3 3 1 3 3 3 2 5 6 6 6 3 5 5 6 5 6 6 5 5 5 5 5 4 4 4 5 4 4 5 3 3 3 3 3 4 5 5 5 6 6 7 7
1 4 5 1 1 3 1 6 10 2 2 4 5 5 4 5 6 8 6 7 6 4 6 6 6 5 6 6 5 4 4 4 5 4 6 6 5 4 3 3 3 4 4 6 5 6 6 6 7
2 4 3 1 1 0 2 9 1 4 4 4 6 6 5 5 6 8 6 6 6 6 7 6 6 6 6 6 5 4 4 4 4 4 4 6 6 6 4 3 4 5 4 4 4 4 5 6 6
5 4 5 5 2 1 3 8 3 1 7 9 7 6 6 7 6 4 6 6 7 8 9 7 6 7 7 6 5 5 5 4 4 4 5 6 6 6 5 4 4 5 4 4 4 5 5 6 8
6 5 4 5 1 1 3 15 13 6 7 8 8 6 6 6 8 2 6 6 6 7 7 8 6 6 6 4 3 3 3 4 4 5 5 7 5 7 6 5 5 5 5 5 5 6 6 7 8
5 3 4 2 2 1 6 9 19 7 6 6 5 5 6 4 3 3 5 6 8 7 9 7 8 4 3 3 3 2 2 2 2 3 5 6 6 7 7 5 6 6 6 6 7 7 8 5 5
3 3 6 3 1 2 3 13 18 5 2 2 5 5 4 2 4 5 7 5 4 8 8 7 7 6 5 3 2 2 1 1 1 2 5 5 8 7 7 7 7 6 6 7 7 6 5 5 5
4 6 5 5 1 2 5 8 4 1 1 3 4 3 2 4 6 6 7 7 8 8 7 7 6 6 5 4 2 2 2 1 2 4 4 6 7 8 8 8 8 7 6 6 7 6 6 6 5
4 6 5 5 4 5 2 7 5 3 1 2 3 4 4 6 5 5 7 6 7 6 6 7 6 6 6 5 5 4 2 2 1 5 5 6 6 8 8 8 8 8 6 8 7 6 5 5 7
3 4 5 3 4 4 4 3 8 1 3 3 3 4 5 5 7 8 7 7 6 6 6 6 6 6 6 6 5 3 3 2 3 5 8 7 7 7 8 8 7 7 6 7 9 8 8 7 7
9 6 6 4 3 2 5 6 6 6 6 4 3 4 5 6 7 7 6 7 6 5 6 5 6 5 4 4 5 5 4 5 6 7 7 7 7 6 6 6 6 7 8 8 8 8 9 9 8
2 6 2 4 3 8 1 2 9 4 5 6 9 7 6 6 7 7 8 7 6 6 5 5 5 4 4 4 4 3 3 4 6 6 6 9 8 7 8 8 7 8 9 9 9 9 9 10 9
6 6 7 9 5 4 4 8 7 4 2 5 6 7 6 6 5 7 7 6 7 6 5 5 5 4 3 3 4 4 4 3 4 5 6 6 7 8 10 8 7 10 11 9 9 8 9 11 10
6 6 3 8 1 3 4 7 7 4 3 4 7 6 7 7 6 7 6 5 5 5 4 5 4 3 2 3 3 3 3 4 5 6 6 6 8 8 9 10 10 8 8 9 10 7 10 10 10
3 4 3 2 2 4 4 6 6 6 8 6 8 8 7 7 7 6 5 6 4 4 4 4 3 2 2 3 3 1 3 4 4 6 8 8 9 10 10 10 9 10 10 10 11 9 10 10 9
3 2 2 1 3 5 1 7 5 10 10 11 9 9 9 8 7 6 6 5 5 4 4 4 4 4 4 3 1 3 4 5 4 5 7 8 8 10 11 10 11 11 11 11 10 11 12 12 12
1 7 6 3 5 1 1 8 1 7 10 9 8 8 7 6 6 6 6 5 4 4 4 4 4 4 3 1 2 3 5 5 6 7 8 8 10 9 9 11 11 11 11 11 11 12 11 12 13
Wind_Direction
331 324 79 45 62 62 279 255 259 231 205 220 116 138 169 111 168 204 341 174 146 149 158 164 156 156 152 147 143 136 135 135 132 131 131 130 130 131 135 139 145 152 131 156 129 112 114 108 89
328 321 45 86 92 104 257 254 226 233 167 133 106 82 101 161 175 105 115 195 155 151 158 162 154 158 157 151 146 143 147 147 143 138 137 135 134 131 148 195 194 216 135 78 123 58 150 128 119
283 21 83 93 111 185 211 218 232 225 151 206 112 60 147 173 190 175 174 148 144 155 160 160 156 159 162 150 150 152 157 159 155 154 151 156 149 144 302 324 289 234 99 96 42 28 147 150 154
57 21 45 97 202 246 211 198 197 158 343 14 112 130 274 236 168 184 142 148 149 159 162 160 168 162 158 148 154 167 175 160 164 162 157 167 142 110 44 6 15 135 240 67 33 12 178 192 137
37 57 76 89 247 258 250 250 193 185 172 206 164 205 247 248 315 133 141 150 154 159 161 167 168 159 158 149 149 165 153 155 161 155 155 169 155 152 134 71 71 66 39 11 356 345 338 266 174
52 91 80 211 239 252 262 244 170 206 166 203 156 146 232 351 154 163 148 154 158 159 159 167 166 159 158 150 158 165 165 166 166 167 171 179 187 184 191 189 145 127 299 302 308 318 322 318 197
112 92 203 191 234 288 231 147 192 190 165 236 146 146 282 257 176 150 148 144 149 152 156 164 166 172 156 156 169 176 187 187 187 186 191 200 204 206 215 214 225 239 268 290 302 305 311 323 201
105 94 143 239 195 253 27 318 183 175 215 120 194 219 263 225 136 114 124 140 152 156 160 168 169 172 181 186 188 190 192 189 193 203 200 213 220 230 229 231 250 258 263 277 285 288 291 310 258
137 71 213 236 168 242 2 74 319 314 313 296 206 210 231 114 125 118 125 132 147 160 167 168 173 186 194 199 197 200 205 197 201 203 213 219 229 248 253 250 242 257 264 268 268 268 274 277 264
92 127 220 216 201 233 318 21 305 91 358 261 260 265 61 139 159 161 168 166 170 172 179 178 186 199 203 201 181 202 203 184 199 215 228 214 234 264 275 264 255 261 274 279 280 274 268 264 256
159 204 199 239 233 176 259 279 295 183 242 231 196 215 186 183 186 187 182 179 180 173 174 182 193 245 271 191 120 128 117 103 83 73 70 47 29 355 321 287 305 292 276 276 276 275 253 252 249
195 236 209 264 53 318 236 294 272 199 226 153 157 257 257 209 205 205 189 175 161 162 162 154 151 114 76 88 54 79 76 65 66 53 38 41 41 24 15 324 320 292 279 291 284 269 260 236 243
182 272 245 276 288 255 310 245 248 250 247 282 284 261 263 239 217 214 195 172 157 160 161 146 122 119 100 87 85 71 64 59 51 45 35 32 29 10 349 322 315 302 304 292 290 288 280 265 256
142 280 273 290 294 286 258 274 114 258 125 122 314 271 246 239 218 192 189 187 178 158 149 131 114 110 105 91 91 85 78 75 66 57 41 38 34 14 358 339 321 300 302 300 293 288 287 283 282
69 328 322 202 198 237 202 276 231 249 271 297 327 283 296 242 224 220 209 194 177 169 141 135 120 110 102 100 92 89 77 79 71 60 49 42 36 19 359 336 318 312 316 306 295 286 284 281 278
53 54 352 349 73 333 129 271 351 44 75 341 312 296 291 273 235 228 208 193 170 146 140 126 112 107 102 101 97 92 81 80 73 63 54 38 32 22 9 354 340 332 324 318 304 295 284 272 267
5 220 206 304 65 305 158 273 293 160 343 307 301 291 280 279 269 241 189 176 163 146 137 121 114 105 102 97 98 94 93 73 66 56 42 30 26 18 8 354 340 340 331 322 315 297 281 277 270
198 213 237 241 347 130 229 266 264 273 307 291 302 305 298 273 250 163 161 143 130 120 110 106 101 101 99 100 100 86 84 52 55 41 36 24 15 10 358 343 343 340 328 317 319 306 297 280 279
130 182 224 230 107 300 239 270 279 281 283 298 316 329 326 299 319 170 118 117 111 101 114 114 111 88 89 70 74 48 42 15 39 36 27 16 8 350 337 326 325 326 315 305 304 303 297 287 277
156 160 250 287 129 193 322 275 277 267 245 331 315 334 339 77 70 94 112 113 112 124 114 108 93 80 69 83 86 81 46 42 355 20 0 359 344 338 332 328 320 317 310 304 302 296 295 275 278
206 186 199 206 170 63 331 284 289 196 110 18 13 341 21 130 122 106 113 124 120 118 121 108 101 92 75 74 78 59 78 27 14 353 337 336 332 331 333 329 321 316 308 298 296 287 269 276 271
224 196 158 148 107 230 13 278 281 183 98 31 19 33 81 119 108 111 125 122 123 115 108 102 98 90 76 63 69 73 67 355 329 317 315 321 327 330 327 323 321 316 315 307 303 293 279 278 274
216 102 112 87 96 54 313 58 264 124 208 188 141 125 111 129 137 141 133 121 115 117 108 104 97 84 79 78 77 69 41 336 319 317 324 332 333 326 319 312 316 314 314 304 297 293 286 278 272
153 78 55 62 94 333 224 155 256 190 190 166 162 158 150 142 136 130 120 117 111 106 101 103 106 96 85 76 69 62 28 341 340 338 333 328 322 312 305 303 300 298 301 300 298 295 288 280 272
82 108 354 355 6 227 44 59 252 219 208 187 173 173 174 159 147 141 134 133 130 128 130 132 127 122 96 78 60 39 21 345 321 322 322 320 316 315 316 313 309 307 300 293 289 284 278 273 266
190 168 165 198 195 232 2 228 251 202 212 200 172 164 165 158 142 134 131 129 134 146 148 136 124 115 93 72 43 19 353 314 299 290 296 298 296 299 305 297 293 301 300 296 291 282 275 271 264
180 206 156 108 93 42 211 275 288 170 120 134 153 155 176 165 163 134 128 132 137 145 147 143 134 126 86 45 14 317 303 289 275 283 284 289 291 294 296 296 292 288 286 280 281 274 275 269 264
171 163 123 5 170 246 277 279 236 184 182 166 162 169 170 169 151 152 152 154 160 161 159 153 144 163 174 214 233 264 288 292 298 309 293 294 297 294 296 296 294 289 284 283 282 280 275 272 268
154 196 227 220 174 179 239 256 223 186 173 169 174 174 171 171 170 164 161 169 164 162 170 181 182 197 211 215 290 314 329 311 299 292 286 285 295 291 291 289 287 286 288 285 280 277 278 275 274
276 190 139 163 203 218 137 272 80 191 170 168 176 174 164 162 172 170 169 161 163 171 181 189 190 208 220 244 313 327 317 313 300 299 294 291 288 280 280 283 282 282 280 279 277 277 277 276 276